Location: Puketoi
(40.5833°S, 176.0167°E)
Time: 01:07:45
(UTC+00:00)

COSMOS 2455 - Pass Details

Date: 29 September 2023
Orbit: 902 x 907 km, 67.1° (Epoch: 03 December)

Event Time Altitude Azimuth Distance (km) Brightness Sun altitude
Exits shadow 12:50:38 13° 194° (SSW) 2,435 5.5 -45.8°
Drops below altitude 10° 12:51:44 10° 184° (S) 2,616 5.7 -45.7°
Sets 12:55:32 0° 161° (SSE) 3,562 6.7 -45.5°
